This is the latest recevied weather packets stored in our database for station/object Winterlng. If no packets are shown the sender has not sent any weather packets the latest 10 day(s).
| Time | Temp. | Humidity | Pressure | Rain* | Wind** | Luminosity | Snow |
|---|---|---|---|---|---|---|---|
| 1777671130 | 11.67° C | 51% | 0 hPa | 0 mm | - | - | - |
| 1777669330 | 12.22° C | 49% | 0 hPa | 0 mm | - | - | - |
| 1777667529 | 12.78° C | 46% | 0 hPa | 0 mm | - | - | - |
| 1777665732 | 13.89° C | 44% | 0 hPa | 0 mm | - | - | - |
| 1777663929 | 13.89° C | 43% | 0 hPa | 0 mm | - | - | - |
| 1777662130 | 15° C | 41% | 0 hPa | 0 mm | - | - | - |
| 1777660331 | 16.67° C | 38% | 0 hPa | 0 mm | - | - | - |
| 1777658531 | 17.22° C | 34% | 0 hPa | 0 mm | - | - | - |
| 1777656731 | 18.33° C | 33% | 0 hPa | 0 mm | - | - | - |
| 1777654930 | 18.33° C | 32% | 0 hPa | 0 mm | - | - | - |
| 1777653130 | 18.89° C | 32% | 0 hPa | 0 mm | - | - | - |
| 1777651330 | 18.89° C | 30% | 0 hPa | 0 mm | - | - | - |
| 1777649530 | 18.89° C | 30% | 0 hPa | 0 mm | - | - | - |
| 1777647730 | 19.44° C | 28% | 0 hPa | 0 mm | - | - | - |
| 1777645930 | 18.89° C | 28% | 0 hPa | 0 mm | - | - | - |
| 1777644130 | 18.89° C | 28% | 0 hPa | 0 mm | - | - | - |
| 1777642330 | 18.89° C | 27% | 0 hPa | 0 mm | - | - | - |
| 1777640531 | 18.33° C | 28% | 0 hPa | 0 mm | - | - | - |
| 1777638736 | 18.33° C | 28% | 0 hPa | 0 mm | - | - | - |
| 1777636931 | 17.78° C | 28% | 0 hPa | 0 mm | - | - | - |
| 1777635130 | 16.67° C | 30% | 0 hPa | 0 mm | - | - | - |
| 1777633331 | 16.11° C | 31% | 0 hPa | 0 mm | - | - | - |
| 1777631531 | 15.56° C | 34% | 0 hPa | 0 mm | - | - | - |
| 1777629731 | 15° C | 34% | 0 hPa | 0 mm | - | - | - |
| 1777627931 | 13.89° C | 35% | 0 hPa | 0 mm | - | - | - |
* Rain since midnight (hover to see other rain measurements)
** Current wind speed in m/s (hover to see current wind gust speed)